[[{"header":{"parameterUnit":"m.s-1","parameterCategory":1,"la1":30.2991,"la2":30.254,"lo1":-89.0895,"lo2":-89.0444,"dy":0.0017,"dx":0.0017,"nx":28,"ny":28,"refTime":"2025-04-19T21:00:00:Z","depth":0,"parameterNumber":2,"parameterNumberName":"U-component_of_WINDS"},"data":[0,0,0,0,0,0,0,0,0,0,0,0,0,0,0,0,0,0,0,0,0,0,0,0,0,0,0,0,0,0,0,0,0,0,0,0,0,0,0,0,0,0,0,0,0,0,0,0,0,0,0,0,0,0,0,0,0,0,-3.0666,-3.0667,0,-3.0735,-3.0736,-3.0737,-3.0747,-3.0747,-3.0746,-3.0746,-3.0812,-3.0814,-3.0817,0,0,0,0,0,0,0,0,0,0,0,0,0,-3.0539,-3.0541,-3.0666,-3.0667,-3.0668,-3.0735,-3.0736,-3.0737,-3.0748,-3.0747,-3.0746,-3.0745,-3.0811,-3.0814,-3.0817,0,0,0,0,0,0,0,0,0,0,0,0,0,-3.06,-3.0542,-3.0666,-3.0681,-3.0683,-3.0735,-3.0736,-3.0737,-3.0748,-3.0747,-3.0746,-3.0745,-3.081,-3.0814,-3.0817,-3.0857,0,0,-3.0828,-3.083,0,0,0,0,0,0,0,0,-3.0596,-3.0604,-3.0678,-3.068,-3.0683,-3.0732,-3.0716,-3.0777,-3.0748,-3.0723,-3.0746,-3.0745,-3.0786,-3.0791,-3.0806,-3.086,-3.0863,-3.0828,-3.083,-3.0832,-3.0833,0,0,0,0,0,0,0,-3.0592,-3.0601,-3.0693,-3.0679,-3.0682,-3.0683,-3.0691,-3.0728,-3.0759,-3.0725,-3.0726,-3.0734,-3.0787,-3.0803,-3.0808,-3.0864,-3.0828,-3.0831,-3.0834,-3.0835,-3.0955,-3.0956,0,0,0,0,0,0,-3.0585,-3.0598,-3.0691,-3.0695,-3.0636,-3.0686,-3.0695,-3.0717,-3.0758,-3.0764,-3.0735,-3.0735,-3.0797,-3.0804,-3.081,-3.086,-3.0832,-3.0835,-3.0837,-3.0954,-3.0955,-3.0957,0,0,0,0,0,0,-3.0583,-3.0594,-3.0688,-3.0647,-3.0659,-3.069,-3.0714,-3.0719,-3.0735,-3.0766,-3.0771,-3.0746,-3.0797,-3.0805,-3.0846,-3.0862,-3.0837,-3.084,-3.0953,-3.0955,-3.0956,-3.0958,0,0,0,0,0,0,-3.0579,-3.0593,-3.0609,-3.0647,-3.0661,-3.0724,-3.0715,-3.0721,-3.0741,-3.0741,-3.0777,-3.0782,-3.0797,-3.0841,-3.0849,-3.0866,-3.0843,-3.0951,-3.0954,-3.0956,-3.0957,-3.096,-3.0963,0,0,0,0,0,-3.0574,-3.0606,-3.061,-3.0621,-3.0682,-3.0725,-3.0732,-3.075,-3.0743,-3.0758,-3.0779,-3.0781,-3.086,-3.0845,-3.0855,-3.0873,-3.095,-3.0953,-3.0955,-3.0956,-3.0959,-3.0962,0,0,0,0,0,0,-3.0566,-3.0611,-3.0616,-3.0661,-3.0689,-3.0726,-3.0747,-3.0753,-3.0783,-3.0781,-3.08,-3.0808,-3.0848,-3.0865,-3.0848,-3.0914,-3.0904,-3.0909,-3.0901,-3.0905,-3.0908,-3.0902,-3.0846,0,0,0,0,0,-3.057,-3.0602,-3.0639,-3.0675,-3.0689,-3.0716,-3.0735,-3.0746,-3.0775,-3.0787,-3.081,-3.0837,-3.0868,-3.0888,-3.0918,-3.0961,-3.0968,-3.0978,-3.0981,-3.0983,-3.0986,-3.1009,-3.1014,-3.0965,-3.0965,-3.0965,0,0,-3.0577,-3.0606,-3.0624,-3.0674,-3.0697,-3.0729,-3.0725,-3.0759,-3.0782,-3.0791,-3.0831,-3.085,-3.0881,-3.0923,-3.0943,-3.0939,-3.1002,-3.0986,-3.0987,-3.0989,-3.1012,-3.1017,-3.1021,-3.0966,-3.0966,-3.0966,0,0,-3.0606,-3.0632,-3.0664,-3.0688,-3.0725,-3.0743,-3.075,-3.0788,-3.0801,-3.0842,-3.085,-3.0877,-3.093,-3.0952,-3.097,-3.1011,-3.1013,-3.102,-3.1033,-3.1056,-3.106,-3.1063,-3.1076,-3.1081,-3.1023,-3.1023,-3.1023,0,-3.061,-3.0659,-3.068,-3.0713,-3.0735,-3.0747,-3.078,-3.0802,-3.0845,-3.0859,-3.0855,-3.0922,-3.0944,-3.0991,-3.1001,-3.1016,-3.1025,-3.1014,-3.1058,-3.1061,-3.1065,-3.1078,-3.1083,-3.1024,-3.1024,-3.1024,-3.1024,0,-3.0661,-3.0695,-3.0717,-3.0761,-3.0785,-3.0818,-3.0843,-3.0865,-3.0874,-3.0892,-3.0934,-3.0962,-3.0998,-3.101,-3.1019,-3.1059,-3.1055,-3.1054,-3.1044,-3.107,-3.1082,-3.1087,-3.1024,-3.1024,-3.1024,-3.1024,0,0,-3.0684,-3.0741,-3.0749,-3.0769,-3.0811,-3.0837,-3.087,-3.0907,-3.0925,-3.0955,-3.0983,-3.1029,-3.1028,-3.1049,-3.1061,-3.1081,-3.111,-3.1078,-3.1079,-3.1082,-3.1155,-3.1154,-3.1159,-3.1114,-3.1115,-3.1116,-3.1152,0,-3.0717,-3.0779,-3.0799,-3.085,-3.0881,-3.0895,-3.0924,-3.0952,-3.097,-3.0999,-3.1019,-3.105,-3.1048,-3.1061,-3.1082,-3.1102,-3.1125,-3.11,-3.1138,-3.1139,-3.1128,-3.1166,-3.1165,-3.1197,-3.1157,-3.1157,-3.1158,0,-3.0763,-3.0796,-3.085,-3.0889,-3.0902,-3.0928,-3.0964,-3.0992,-3.1024,-3.1036,-3.1061,-3.1072,-3.1107,-3.1097,-3.1144,-3.1127,-3.1144,-3.1157,-3.1159,-3.1161,-3.1148,-3.1168,-3.1208,-3.1212,-3.1166,-3.1165,-3.1165,0,-3.0773,-3.083,-3.087,-3.0887,-3.0934,-3.0952,-3.0972,-3.1004,-3.1025,-3.1056,-3.107,-3.1105,-3.1123,-3.1149,-3.1169,-3.116,-3.1214,-3.1206,-3.1224,-3.1223,-3.1232,-3.1231,-3.1274,-3.1247,-3.1246,-3.1246,-3.1246,0,-3.0806,-3.0838,-3.0875,-3.0899,-3.0936,-3.096,-3.0995,-3.1015,-3.1044,-3.1071,-3.1086,-3.1111,-3.1137,-3.1165,-3.1181,-3.1218,-3.1226,-3.1236,-3.1239,-3.1233,-3.1232,-3.1243,-3.124,-3.1248,-3.1247,-3.1247,-3.1247,0,-3.0822,-3.0848,-3.0893,-3.0934,-3.0945,-3.097,-3.1005,-3.1029,-3.1049,-3.1084,-3.1093,-3.1124,-3.1159,-3.1182,-3.1226,-3.1236,-3.1276,-3.1279,-3.1265,-3.1266,-3.1282,-3.1279,-3.1332,-3.134,-3.1308,-3.1309,-3.1309,0,-3.084,-3.0866,-3.0911,-3.0931,-3.0952,-3.0984,-3.1007,-3.1031,-3.1054,-3.1094,-3.1112,-3.1149,-3.1178,-3.1233,-3.1258,-3.1292,-3.1296,-3.1312,-3.13,-3.1294,-3.1294,-3.1292,-3.1294,-3.1313,-3.1313,-3.1313,-3.1313,0,-3.087,-3.0882,-3.0915,-3.0952,-3.0979,-3.1009,-3.104,-3.1055,-3.1085,-3.111,-3.1146,-3.117,-3.1216,-3.1251,-3.1287,-3.1306,-3.1314,-3.1317,-3.1323,-3.1316,-3.1306,-3.1311,-3.1268,-3.1315,-3.1315,-3.1315,-3.1315,-3.1315,-3.0887,-3.091,-3.0946,-3.0981,-3.1007,-3.1036,-3.106,-3.1084,-3.1116,-3.1156,-3.1169,-3.1206,-3.1239,-3.1289,-3.1309,-3.1338,-3.1337,-3.1345,-3.1347,-3.1348,-3.1347,-3.1304,-3.1345,-3.1345,-3.1345,-3.1345,-3.1345,0,-3.0916,-3.094,-3.0973,-3.1016,-3.1044,-3.1052,-3.1086,-3.1109,-3.1142,-3.1173,-3.1203,-3.1245,-3.1279,-3.1309,-3.1344,-3.1362,-3.1366,-3.137,-3.1368,-3.1372,-3.1347,-3.1338,-3.1366,-3.1366,-3.1366,-3.1366,-3.1366,-3.1366,-3.0934,-3.0974,-3.0991,-3.1043,-3.1067,-3.1106,-3.1124,-3.115,-3.1175,-3.1222,-3.1251,-3.1271,-3.1301,-3.1339,-3.1371,-3.1378,-3.139,-3.1393,-3.1401,-3.1377,-3.1374,-3.1372,-3.1363,-3.1396,-3.1396,-3.1423,-3.1424,-3.1424]},{"header":{"parameterUnit":"m.s-1","parameterCategory":1,"la1":30.2991,"la2":30.254,"lo1":-89.0895,"lo2":-89.0444,"dy":0.0017,"dx":0.0017,"nx":28,"ny":28,"refTime":"2025-04-19T21:00:00:Z","depth":0,"parameterNumber":3,"parameterNumberName":"V-component_of_WINDS"},"data":[0,0,0,0,0,0,0,0,0,0,0,0,0,0,0,0,0,0,0,0,0,0,0,0,0,0,0,0,0,0,0,0,0,0,0,0,0,0,0,0,0,0,0,0,0,0,0,0,0,0,0,0,0,0,0,0,0,0,3.6025,3.6027,0,3.6153,3.6154,3.6156,3.6245,3.6246,3.6246,3.6247,3.6376,3.6379,3.6381,0,0,0,0,0,0,0,0,0,0,0,0,0,3.5861,3.5864,3.6025,3.6027,3.6028,3.6153,3.6154,3.6156,3.6245,3.6246,3.6247,3.6247,3.6375,3.6378,3.6382,0,0,0,0,0,0,0,0,0,0,0,0,0,3.5955,3.5864,3.6025,3.6088,3.6095,3.6152,3.6154,3.6157,3.6245,3.6246,3.6247,3.6248,3.6374,3.6378,3.6382,3.6387,0,0,3.6395,3.6397,0,0,0,0,0,0,0,0,3.5949,3.5961,3.6077,3.6083,3.6091,3.6184,3.6144,3.6234,3.6244,3.6188,3.6247,3.6248,3.6311,3.6321,3.6342,3.6393,3.6398,3.6395,3.6398,3.64,3.6401,0,0,0,0,0,0,0,3.5943,3.5956,3.6076,3.6078,3.6087,3.611,3.6125,3.6161,3.6242,3.6193,3.6199,3.6213,3.6315,3.6338,3.6346,3.64,3.6395,3.6399,3.6401,3.6403,3.6468,3.6467,0,0,0,0,0,0,3.5926,3.595,3.6072,3.6079,3.6022,3.6113,3.6129,3.6153,3.6242,3.6256,3.6212,3.6217,3.633,3.6341,3.6351,3.6366,3.6399,3.6403,3.6406,3.6468,3.6467,3.6466,0,0,0,0,0,0,3.5922,3.5936,3.6066,3.6017,3.6035,3.6114,3.6141,3.6155,3.6178,3.6257,3.6272,3.622,3.6331,3.6345,3.6379,3.6371,3.6405,3.6409,3.6469,3.6468,3.6467,3.6393,0,0,0,0,0,0,3.5917,3.5934,3.5936,3.6016,3.6037,3.6091,3.6141,3.6157,3.6185,3.6192,3.6268,3.6282,3.6333,3.6372,3.6383,3.6378,3.6412,3.647,3.6469,3.6467,3.6396,3.6389,3.6384,0,0,0,0,0,3.5911,3.5908,3.5935,3.595,3.6041,3.609,3.6103,3.6162,3.6184,3.6187,3.6239,3.6279,3.637,3.6375,3.6388,3.6383,3.6471,3.6469,3.6467,3.6399,3.6391,3.6384,0,0,0,0,0,0,3.5823,3.592,3.5951,3.5974,3.6024,3.6105,3.6111,3.6151,3.6194,3.6199,3.6272,3.6288,3.6315,3.6353,3.6356,3.6396,3.6426,3.6427,3.637,3.6362,3.6356,3.6346,3.6416,0,0,0,0,0,3.5807,3.5839,3.5922,3.5934,3.5958,3.603,3.6053,3.6096,3.615,3.6171,3.6225,3.6276,3.6317,3.6342,3.6383,3.6403,3.6423,3.6407,3.6401,3.6395,3.6394,3.6412,3.6407,3.6461,3.6461,3.6461,0,0,3.5772,3.5829,3.5844,3.5918,3.5961,3.5994,3.6047,3.6078,3.6104,3.6176,3.6212,3.6254,3.6316,3.6344,3.6359,3.6376,3.6385,3.6393,3.6387,3.639,3.641,3.6405,3.64,3.6459,3.646,3.646,0,0,3.5727,3.5772,3.579,3.5833,3.59,3.5949,3.5953,3.6031,3.6062,3.61,3.6156,3.6188,3.6255,3.6299,3.6329,3.6307,3.6348,3.6319,3.6285,3.6301,3.6297,3.6294,3.6289,3.6285,3.6318,3.6318,3.6318,0,3.5675,3.5727,3.5793,3.5823,3.5855,3.5925,3.5945,3.5984,3.6059,3.6081,3.6099,3.6189,3.6235,3.6277,3.6272,3.6294,3.6303,3.631,3.6292,3.629,3.6288,3.6284,3.6281,3.6314,3.6315,3.6315,3.6316,0,3.5663,3.5698,3.5704,3.5779,3.5812,3.5836,3.5907,3.5933,3.5974,3.6022,3.6062,3.6121,3.6178,3.6191,3.623,3.6239,3.6249,3.6279,3.631,3.6278,3.6275,3.6274,3.6309,3.631,3.6312,3.6312,0,0,3.5561,3.5676,3.5678,3.5715,3.5795,3.5824,3.5854,3.5911,3.5933,3.5985,3.6013,3.6071,3.6102,3.6137,3.6182,3.6196,3.6179,3.6226,3.6228,3.6217,3.6197,3.6175,3.6172,3.6207,3.6207,3.6207,3.6193,0,3.553,3.5586,3.5649,3.5685,3.572,3.579,3.5816,3.587,3.5916,3.5954,3.6006,3.6047,3.6083,3.6105,3.6122,3.6177,3.6176,3.6179,3.6235,3.6236,3.6218,3.617,3.6145,3.6129,3.6192,3.6192,3.6192,0,3.5499,3.555,3.5589,3.5673,3.569,3.5712,3.5773,3.5807,3.5871,3.5905,3.5946,3.5996,3.6033,3.6062,3.6115,3.6116,3.6143,3.6174,3.6175,3.6182,3.6212,3.6178,3.6125,3.6123,3.6191,3.6191,3.6191,0,3.5425,3.5503,3.5538,3.5567,3.5664,3.5679,3.572,3.5785,3.5817,3.587,3.5892,3.5948,3.5979,3.6022,3.6087,3.6101,3.6135,3.6167,3.6165,3.6163,3.6168,3.6167,3.612,3.6184,3.6184,3.6184,3.6184,0,3.5383,3.5405,3.5507,3.5528,3.5556,3.563,3.5656,3.5703,3.5762,3.5795,3.5858,3.5888,3.5971,3.6012,3.6062,3.6101,3.6114,3.6143,3.6157,3.6138,3.6135,3.6157,3.616,3.6183,3.6183,3.6183,3.6183,0,3.5304,3.5372,3.5416,3.5506,3.5529,3.5546,3.5624,3.5648,3.5701,3.5742,3.5757,3.5838,3.589,3.5959,3.6031,3.6066,3.6099,3.6119,3.6078,3.6086,3.608,3.608,3.6046,3.6047,3.6108,3.6107,3.6107,0,3.5273,3.5292,3.5385,3.5413,3.5453,3.5496,3.553,3.5605,3.5639,3.5716,3.5732,3.5789,3.5839,3.5918,3.5985,3.6042,3.6065,3.6049,3.6073,3.6056,3.6067,3.6066,3.607,3.6043,3.6042,3.6041,3.604,0,3.5211,3.5246,3.5293,3.5355,3.5395,3.5446,3.55,3.5519,3.5606,3.564,3.5695,3.5734,3.5811,3.5867,3.5934,3.5978,3.6024,3.6033,3.6036,3.6017,3.5993,3.6009,3.6063,3.6033,3.6033,3.6034,3.6034,3.6035,3.5157,3.5179,3.525,3.5302,3.5352,3.5402,3.5431,3.5489,3.5536,3.5605,3.5647,3.5701,3.5769,3.5864,3.5906,3.5951,3.5969,3.5972,3.5973,3.5973,3.5968,3.5986,3.5963,3.5963,3.5963,3.5964,3.5964,0,3.5101,3.5151,3.5199,3.5274,3.5316,3.5359,3.5422,3.5455,3.5502,3.5562,3.5611,3.5676,3.5733,3.5806,3.5868,3.589,3.5914,3.5904,3.5904,3.5914,3.5947,3.594,3.5885,3.5885,3.5885,3.5885,3.5885,3.5885,3.5077,3.5118,3.5162,3.5229,3.528,3.5334,3.5367,3.5415,3.5465,3.5535,3.5583,3.5631,3.5698,3.5767,3.5822,3.5842,3.5863,3.5848,3.5874,3.5904,3.5911,3.5917,3.5911,3.5851,3.5851,3.5838,3.5838,3.5837]}]]